リニア彗星

216P/LINEAR (2001)

English version
Home page
Updated on February 27, 2016

---------------------------------------------------------------------

・ プロフィール

符号 216P/2001 CV8
発見日 2001年2月1日
発見光度 19.0等
発見者 Lincoln Laboratory Near-Earth Asteroid Research project

・ 軌道要素

Epoch 2001 Feb. 20.0 TT = JDT 2451960.5
T 2001 Feb. 12.27294 TT                                 MPC
q   2.1519939            (2000.0)            P               Q
n   0.12904653     Peri.  151.42308     -0.87779619     -0.47903427
a   3.8782740      Node   359.95400     +0.40415683     -0.74044715
e   0.4451156      Incl.    9.04202     +0.25715969     -0.47144903
P   7.64

・ 星図

・ 光度変化

        m1 = 2.0 + 5 logΔ + 45 log r

---------------------------------------------------------------------

軌道要素はM.P.E.C. 2009-D39に掲載されたものです。
星図は StellaNavigator Ver.2.0 for Windows (アストロアーツ編著 / アスキー出版局刊) で作成したものです。
光度グラフはComet for Windowsで作成したものです。

---------------------------------------------------------------------

Copyright(C) Seiichi Yoshida (comet@aerith.net). All rights reserved.